JA3VQW-13 Hirakata JP current weather conditions

sailwx.info

Wind from 300

Air temperature 30.6° C
Dewpoint 15.0° C

Last reported at 2014-Oct-02 03:36 UTC.
Time now 2014-Oct-02 04:37 UTC

Location: N 34°48' E 135°40'.
View on Google Maps.

See reports from other nearby stations

  
Tides and Currents Weather Stations Pressure Air Temp Water Temp Dewpoint Dewpoint Depression Visibility Wind Speed Wind Dir Waves Ship Positions
date/time (UTC)wind fromknots sea level pressurealtimeterstation pressurevisibilityair tempwater tempwave heightnotes
2014-Oct-02 03:36 300 30.6
2014-Oct-02 03:13 180 30.0
2014-Oct-02 02:43 315 30.6
2014-Oct-02 02:13 248 30.6
2014-Oct-02 01:43 248 28.9
2014-Oct-02 01:13 248 26.1
2014-Oct-02 00:53 248 25.0
2014-Oct-02 00:43 248 25.0
2014-Oct-02 00:13 248 24.4
2014-Oct-01 23:43 248 23.3
2014-Oct-01 23:13 248 22.8
2014-Oct-01 22:43 248 22.8
2014-Oct-01 22:13 248 21.7
2014-Oct-01 21:43 248 20.6
2014-Oct-01 21:34 248 20.6
2014-Oct-01 21:04 248 20.6
2014-Oct-01 20:34 248 20.6
2014-Oct-01 20:04 248 20.6
2014-Oct-01 19:34 248 20.6
2014-Oct-01 19:04 248 21.1
2014-Oct-01 18:34 248 21.1
2014-Oct-01 18:04 248 21.1
2014-Oct-01 17:34 248 21.1
2014-Oct-01 17:04 248 21.1
2014-Oct-01 16:34 248 21.7
2014-Oct-01 16:04 248 21.7
2014-Oct-01 15:34 248 22.2
2014-Oct-01 15:04 248 22.2
2014-Oct-01 14:34 248 22.2
2014-Oct-01 14:04 248 22.8
2014-Oct-01 13:34 248 22.8
2014-Oct-01 13:04 248 23.3
2014-Oct-01 12:34 248 23.9
2014-Oct-01 12:04 248 23.9
2014-Oct-01 11:34 248 24.4
2014-Oct-01 11:04 248 24.4
2014-Oct-01 10:34 248 25.0
2014-Oct-01 10:04 248 25.6
2014-Oct-01 09:34 248 25.6
2014-Oct-01 09:04 248 26.1
2014-Oct-01 08:34 248 26.7
2014-Oct-01 08:04 248 27.2
2014-Oct-01 07:34 248 27.8
2014-Oct-01 07:04 248 28.3
2014-Oct-01 06:34 248 28.3
2014-Oct-01 06:04 248 28.9
2014-Oct-01 05:34 248 30.6
2014-Oct-01 05:04 248 32.8
2014-Oct-01 04:34 248 32.2
2014-Oct-01 04:04 248 32.8
2014-Oct-01 03:34 292 31.7
2014-Oct-01 03:04 292 30.6
2014-Oct-01 02:34 292 28.9
2014-Oct-01 02:04 292 27.2
2014-Oct-01 01:34 270 27.2
2014-Oct-01 01:04 270 26.7
2014-Oct-01 00:34 270 25.6
2014-Oct-01 00:04 270 24.4
2014-Sep-30 23:34 270 23.9
2014-Sep-30 23:04 270 22.8
2014-Sep-30 22:34 270 21.7
2014-Sep-30 22:04 270 21.7
2014-Sep-30 21:34 270 21.7
2014-Sep-30 21:04 270 21.7
2014-Sep-30 20:34 270 21.7
2014-Sep-30 20:04 270 21.7
2014-Sep-30 19:34 270 21.7
2014-Sep-30 19:04 270 21.7
2014-Sep-30 18:34 270 21.7
2014-Sep-30 18:04 270 21.7
2014-Sep-30 17:34 270 22.2
2014-Sep-30 17:04 270 22.2
2014-Sep-30 16:34 270 22.2
2014-Sep-30 16:04 270 22.2
2014-Sep-30 15:34 270 21.7
2014-Sep-30 15:04 270 21.7
2014-Sep-30 14:34 270 22.2
2014-Sep-30 14:04 270 22.8
2014-Sep-30 13:34 270 22.8
2014-Sep-30 13:04 270 22.2
2014-Sep-30 12:34 270 22.8
2014-Sep-30 12:04 270 22.8
2014-Sep-30 11:34 270 22.8
2014-Sep-30 11:04 270 22.8
2014-Sep-30 10:34 270 23.3
2014-Sep-30 10:04 270 23.9
2014-Sep-30 09:34 270 24.4
2014-Sep-30 09:04 270 25.0
2014-Sep-30 08:34 270 25.6
2014-Sep-30 08:04 270 26.1
2014-Sep-30 07:34 270 26.7
2014-Sep-30 07:04 249 1 gusting 2 27.8
2014-Sep-30 06:34 270 29.4
2014-Sep-30 06:04 292 31.7
2014-Sep-30 04:34 270 31.1
2014-Sep-30 04:04 292 1 gusting 1 30.0